Location: Lecco
(45.8566°N, 9.3977°E)
Time: 03:54:41
(UTC+02:00)

Transit 4A - Pass Details

Date: 16 August 2020
Orbit: 863 x 982 km, 66.8° (Epoch: 23 September)

Event Time Altitude Azimuth Distance (km) Brightness Sun altitude
Rises 08:21:22 0° 181° (S) 3,477 10.9 19.2°
Reaches altitude 10° 08:24:03 10° 171° (S) 2,559 10.4 19.6°
Maximum altitude 08:29:15 33° 110° (ESE) 1,493 10.7 20.5°
Drops below altitude 10° 08:34:38 10° 49° (NE) 2,647 11.1 21.5°
Sets 08:37:26 0° 40° (NE) 3,615 11.5 22.0°
